Starlink 35526

operational
NORAD ID: 65931 Int'l Des: 2025-225 Owner: SPXS Country: US Constellation: starlink
LEOCIRCULAR

About Starlink 35526

Description loading...

Live Position

Loading 3D Globe...

Upcoming Passes

Altitude History

Altitude vs Time

uPlot chart will show altitude changes over time

Two-Line Element Set

1 65931U 25225X 26061.07917252 .00031804 00000-0 10806-2 0 9991
2 65931 53.1569 200.9684 0001262 59.6283 300.4843 15.30222581 23240
Epoch: Mar 2, 2026 • Age: 43 hours

Current Status

Altitude 475.6 km
Velocity 7.63 km/s
Sub-Earth Point 4.23°N, 83.02°W
Launch Date Oct 8, 2025
Age 0.3 years
Type internet

Technical Details

Classification Payload
Mass 575.00 kg
Dry Mass 530.00 kg
Total Mass 575.00 kg
Length 0.30 m
Diameter 4.10 m
Span 29.00 m
Shape Box + pan
Manufacturer SPXS
Bus Type Starlink V2MO
Phase Status In Orbit
Owner/State SPXS/US

Large Constellations

Loading constellations...